This is the latest recevied weather packets stored in our database for station/object KJ5EHN. If no packets are shown the sender has not sent any weather packets the latest 1 day(s).
| Time | Temp. | Humidity | Pressure | Rain* | Wind** | Luminosity | Snow |
|---|---|---|---|---|---|---|---|
| 1778034473 | 17.78° C | 80% | 1007.5 hPa | 0 mm | 0.89 m/s, 77° | - | - |
| 1778034172 | 17.78° C | 80% | 1007.7 hPa | 0 mm | 0.45 m/s, 219° | - | - |
| 1778033869 | 18.33° C | 80% | 1007.3 hPa | 0 mm | 0.89 m/s, 245° | - | - |
| 1778033566 | 18.33° C | 80% | 1007.4 hPa | 0 mm | 0.89 m/s, 224° | - | - |
| 1778033263 | 18.33° C | 79% | 1007.3 hPa | 0 mm | 0.89 m/s, 321° | - | - |
| 1778032960 | 18.89° C | 79% | 1007.2 hPa | 0 mm | 0.45 m/s, 1° | - | - |
| 1778032658 | 19.44° C | 79% | 1006.9 hPa | 0 mm | 1.34 m/s, 251° | - | - |
| 1778032355 | 19.44° C | 79% | 1007 hPa | 0 mm | 0.45 m/s, 148° | - | - |
| 1778032052 | 19.44° C | 78% | 1007.1 hPa | 0 mm | 0.89 m/s, 293° | - | - |
| 1778031748 | 19.44° C | 78% | 1006.8 hPa | 0 mm | 0 m/s | - | - |
| 1778031446 | 19.44° C | 78% | 1006.8 hPa | 0 mm | 0 m/s | - | - |
| 1778031143 | 19.44° C | 78% | 1006.8 hPa | 0 mm | 0 m/s | - | - |
| 1778030839 | 20° C | 77% | 1006.5 hPa | 0 mm | 0.45 m/s, 136° | - | - |
| 1778030536 | 20° C | 77% | 1006.7 hPa | 0 mm | 0 m/s | - | - |
| 1778030234 | 20° C | 77% | 1006.3 hPa | 0 mm | 0 m/s | - | - |
| 1778029930 | 20° C | 76% | 1006.3 hPa | 0 mm | 0.89 m/s, 118° | - | - |
| 1778029628 | 20.56° C | 76% | 1006.5 hPa | 0 mm | 0.89 m/s, 218° | - | - |
| 1778029325 | 20.56° C | 76% | 1006.1 hPa | 0 mm | 0.45 m/s, 214° | - | - |
| 1778029022 | 21.11° C | 76% | 1006.4 hPa | 0 mm | 0 m/s | - | - |
| 1778028719 | 21.67° C | 76% | 1006 hPa | 0 mm | 0 m/s | - | - |
| 1778028415 | 21.67° C | 75% | 1005.9 hPa | 0 mm | 0.45 m/s, 192° | - | - |
| 1778028112 | 21.67° C | 75% | 1005.9 hPa | 0 mm | 0.45 m/s, 333° | - | - |
| 1778027808 | 22.22° C | 74% | 1005.7 hPa | 0 mm | 0.45 m/s, 217° | - | - |
| 1778027505 | 22.22° C | 74% | 1005.6 hPa | 0 mm | 0.45 m/s, 224° | - | - |
| 1778027201 | 22.78° C | 74% | 1005.6 hPa | 0 mm | 0.45 m/s, 215° | - | - |
* Rain latest hour (hover to see other rain measurements)
** Current wind speed in m/s (hover to see current wind gust speed)